Date,TemperatureHighF,TemperatureAvgF,TemperatureLowF,DewpointHighF,DewpointAvgF,DewpointLowF,HumidityHigh,HumidityAvg,HumidityLow,PressureMaxIn,PressureMinIn,WindSpeedMaxMPH,WindSpeedAvgMPH,GustSpeedMaxMPH,PrecipitationSumIn
2013-1-1,68.3,62.1,54.7,68.0,61.5,53.6,99,98,96,30.02,29.90,17,3,0,0.07
2013-1-2,45.6,42.8,41.7,41.6,38.8,36.6,90,86,82,30.31,30.19,14,2,0,0.32
2013-1-3,54.4,46.3,39.1,39.7,36.5,34.4,85,70,49,30.41,30.28,16,3,0,0.00
2013-1-4,49.1,47.2,45.0,39.9,38.3,36.4,78,71,63,30.49,30.34,15,2,0,0.00
2013-1-5,47.0,44.9,42.9,45.5,43.4,38.8,100,94,74,30.39,30.24,11,1,0,0.56
2013-1-6,57.5,49.2,43.1,46.8,44.3,41.6,97,84,65,30.35,30.24,16,2,0,0.00
2013-1-7,55.7,48.7,39.4,47.8,43.8,37.3,95,84,73,30.31,30.08,11,2,0,0.01
2013-1-8,63.0,57.6,51.5,62.6,56.2,46.3,99,95,80,30.10,29.90,19,3,0,0.34
2013-1-9,65.1,62.1,59.4,64.5,61.6,58.8,99,98,97,30.10,29.80,26,4,0,1.10
2013-1-10,71.7,61.5,52.0,61.7,56.8,49.0,99,87,45,30.10,29.96,12,1,0,0.03
2013-1-11,70.1,58.7,47.2,63.9,54.5,45.0,99,87,61,30.06,29.89,11,1,0,0.01
2013-1-12,75.0,72.3,64.4,71.5,70.7,64.0,99,95,87,29.90,29.71,20,3,0,0.03
2013-1-13,72.1,50.6,43.0,70.1,46.9,40.1,96,87,78,30.13,29.77,21,4,0,0.20
2013-1-14,46.4,43.9,41.3,42.2,40.3,38.2,93,87,82,30.22,30.07,22,4,0,0.01
2013-1-15,43.2,39.5,36.9,39.5,36.7,34.4,93,90,86,30.16,30.04,16,3,0,0.03
2013-1-16,52.8,43.3,36.7,36.0,30.8,24.8,92,64,34,30.28,30.13,20,4,0,0.00
2013-1-17,62.7,47.1,32.0,39.6,33.5,27.9,89,63,35,30.47,30.27,14,1,0,0.00
2013-1-18,59.8,47.3,36.9,44.7,39.2,34.4,95,75,50,30.54,30.38,12,1,0,0.00
2013-1-19,64.0,51.4,37.3,54.3,47.4,35.2,98,87,69,30.38,30.20,12,1,0,0.00
2013-1-20,68.7,54.6,43.6,58.7,49.9,42.8,99,86,60,30.28,30.13,11,0,0,0.01
2013-1-21,71.7,55.9,44.8,56.9,49.4,43.7,98,81,51,30.24,30.14,8,0,0,0.01
2013-1-22,60.5,50.6,45.4,52.2,47.5,43.3,95,89,74,30.31,30.20,4,0,0,0.00
2013-1-23,75.5,60.5,46.8,62.6,56.0,45.2,99,86,60,30.36,30.24,12,1,0,0.01
2013-1-24,79.1,65.4,56.8,67.5,61.8,56.2,99,89,62,30.31,30.15,19,1,0,0.02
2013-1-25,67.1,62.9,58.1,64.9,61.3,57.3,100,95,90,30.17,30.10,7,0,0,0.01
2013-1-26,78.3,66.3,59.5,66.8,62.1,58.6,99,87,60,30.20,30.10,10,1,0,0.00
2013-1-27,75.2,67.6,60.5,68.4,64.7,59.5,98,91,79,30.16,30.05,16,1,0,0.01
2013-1-28,79.5,72.2,69.4,68.9,67.5,65.7,94,86,66,30.12,29.97,21,2,0,0.00
2013-1-29,74.4,71.7,58.9,71.1,69.0,55.1,94,91,78,29.97,29.63,28,5,0,0.20
2013-1-30,61.2,57.3,50.3,55.8,35.6,26.3,88,45,31,30.24,29.76,29,6,0,0.00
2013-1-31,68.5,52.4,36.6,38.5,34.0,26.3,87,54,25,30.33,30.21,17,1,0,0.00
2013-2-1,69.0,57.2,47.0,50.8,45.7,37.8,91,68,40,30.38,30.25,13,1,0,0.00
2013-2-2,74.3,60.7,49.0,60.0,54.4,47.7,98,81,53,30.27,30.17,9,0,0,0.00
2013-2-3,71.7,59.8,53.2,55.1,46.3,36.3,99,65,29,30.33,30.07,12,1,0,0.00
2013-2-4,70.5,62.6,53.9,65.5,59.5,48.2,97,90,81,30.08,29.84,9,1,0,0.08
2013-2-5,62.1,61.2,60.4,61.5,60.5,59.5,98,98,97,29.90,29.88,0,0,0,0.01
2013-2-6,64.3,62.7,60.6,63.6,61.8,58.9,100,97,93,30.04,29.87,20,3,0,0.77
2013-2-7,69.4,63.4,56.2,63.8,60.8,55.1,98,91,82,30.00,29.90,8,1,0,0.00
2013-2-8,70.2,61.5,55.8,61.6,54.7,51.6,97,79,60,30.17,29.99,18,4,0,0.00
2013-2-9,67.8,61.1,54.0,66.0,58.5,51.2,95,91,85,30.14,29.87,17,4,0,0.00
2013-2-10,74.3,66.8,60.1,71.2,62.8,55.1,96,87,73,29.97,29.75,20,3,0,0.11
2013-2-11,63.4,57.1,53.3,57.0,52.7,47.4,97,86,60,30.06,29.96,17,4,0,0.20
2013-2-12,64.8,59.2,55.0,64.1,56.8,51.6,100,92,80,29.98,29.80,17,3,0,0.06
2013-2-13,62.6,53.7,47.7,52.0,43.6,39.9,84,69,49,30.12,29.97,19,3,0,0.02
2013-2-14,64.5,52.2,40.3,46.9,41.2,34.1,95,69,33,30.18,30.05,8,0,0,0.00
2013-2-15,59.8,47.1,41.5,48.5,41.6,39.3,97,82,56,30.32,30.10,21,2,0,0.00
2013-2-16,62.0,51.0,43.0,39.1,31.4,24.0,77,49,31,30.45,30.26,19,2,0,0.00
2013-2-17,70.8,56.9,39.6,54.2,45.2,36.6,94,68,40,30.27,30.06,18,2,0,0.00
2013-2-18,72.5,66.4,56.1,66.3,61.1,53.5,94,83,73,30.07,29.83,22,4,0,0.57
2013-2-19,68.3,58.6,51.1,53.8,45.1,38.9,86,62,38,30.25,30.07,15,3,0,0.00
2013-2-20,60.9,56.6,52.7,59.9,50.1,40.1,97,80,55,30.14,29.80,23,6,0,0.21
2013-2-21,75.8,67.4,58.7,71.8,62.4,50.7,99,85,54,29.86,29.68,20,2,0,0.15
2013-2-22,62.1,59.5,57.1,53.5,49.2,44.5,87,69,58,29.93,29.83,12,2,0,0.00
2013-2-23,69.2,59.0,49.9,54.5,50.2,45.1,84,73,57,30.00,29.88,15,1,0,0.00
2013-2-24,67.2,59.5,50.3,60.0,53.9,45.6,94,82,65,29.94,29.67,14,2,0,0.00
2013-2-25,76.1,64.0,49.3,68.2,48.6,26.8,99,65,17,29.77,29.51,34,6,0,0.00
2013-2-26,64.8,54.2,45.4,42.2,37.2,34.3,67,54,36,29.94,29.76,26,5,0,0.00
2013-2-27,72.0,57.9,44.9,54.9,41.6,29.9,91,58,31,30.16,29.91,22,4,0,0.00
2013-2-28,53.4,48.2,44.0,32.6,30.4,28.7,60,50,41,30.28,30.16,16,3,0,0.00
2013-3-1,40.9,40.7,40.6,33.9,33.7,33.6,76,76,76,30.23,30.21,2,0,0,0.00
2013-3-2,56.5,49.4,42.5,34.3,29.2,24.4,68,47,31,30.36,30.24,24,4,0,0.00
2013-3-3,68.3,52.4,35.7,51.6,38.7,29.0,83,62,36,30.30,30.01,15,1,0,0.00
2013-3-4,79.5,67.3,56.8,63.3,59.0,51.7,89,76,53,30.02,29.80,28,4,0,0.00
2013-3-5,69.9,64.4,53.1,63.4,45.3,29.0,87,54,28,30.30,29.82,27,5,0,0.00
2013-3-6,68.8,55.3,44.2,42.0,31.6,27.7,67,42,22,30.42,30.23,15,2,0,0.00
2013-3-7,66.1,55.9,42.5,52.5,47.2,38.6,91,73,56,30.30,30.19,18,2,0,0.00
2013-3-8,68.7,61.7,55.8,60.8,57.8,52.3,96,87,74,30.23,30.08,18,3,0,0.00
2013-3-9,76.0,67.8,61.9,65.6,63.1,59.5,96,85,68,30.08,29.78,25,2,0,0.00
2013-3-10,69.0,62.9,55.2,66.4,56.0,40.6,96,80,51,30.05,29.74,26,3,0,0.28
2013-3-11,63.6,54.9,47.7,40.9,32.5,25.1,65,45,25,30.13,29.99,22,4,0,0.00
2013-3-12,71.9,55.1,39.9,48.5,38.0,29.4,80,56,27,30.25,30.08,9,1,0,0.00
2013-3-13,73.8,58.4,46.7,50.9,45.3,39.5,93,66,35,30.45,30.25,13,1,0,0.00
2013-3-14,71.8,59.5,46.1,57.2,49.9,43.5,95,73,50,30.43,30.29,16,1,0,0.00
2013-3-15,79.2,64.0,48.4,61.3,55.3,46.5,97,76,49,30.29,30.08,18,2,0,0.00
2013-3-16,79.2,67.9,57.1,64.5,60.7,55.4,96,79,58,30.08,29.87,20,2,0,0.00
2013-3-17,80.5,70.6,63.2,69.5,65.6,60.8,97,85,68,29.89,29.72,19,2,0,0.00
2013-3-18,90.3,75.5,68.3,72.2,68.7,66.7,96,81,48,29.89,29.71,15,1,0,0.00
2013-3-19,73.9,68.5,62.1,67.4,60.8,46.9,91,77,56,30.00,29.88,18,3,0,0.00
2013-3-20,74.9,65.2,56.8,63.9,51.0,38.9,92,64,29,30.18,29.95,26,4,0,0.06
2013-3-21,73.6,64.6,54.8,62.4,55.4,45.4,89,73,50,30.05,29.73,19,2,0,0.00
2013-3-22,83.9,73.5,67.4,72.4,68.3,62.4,95,84,64,29.75,29.66,18,2,0,0.00
2013-3-23,74.1,70.2,65.9,70.7,68.6,64.4,98,95,88,29.75,29.58,7,0,0,0.01
2013-3-24,66.6,59.1,50.6,65.7,44.4,31.6,97,62,35,30.14,29.64,26,6,0,0.00
2013-3-25,61.4,51.9,42.1,35.6,29.2,24.6,63,43,27,30.37,30.14,17,3,0,0.00
2013-3-26,64.3,52.9,42.2,33.9,28.6,24.2,59,40,26,30.49,30.31,17,2,0,0.00
2013-3-27,66.5,55.8,41.0,51.2,43.1,32.6,88,64,46,30.38,30.23,16,2,0,0.00
2013-3-28,71.3,64.3,57.7,60.6,57.2,51.0,92,78,67,30.28,30.19,17,2,0,0.00
2013-3-29,75.8,66.9,59.5,65.6,62.3,58.2,97,86,70,30.23,30.13,17,2,0,0.00
2013-3-30,80.6,70.5,64.1,66.8,64.5,61.9,94,82,61,30.16,29.97,14,1,0,0.00
2013-3-31,84.9,69.4,62.7,69.3,65.1,60.9,98,88,57,29.99,29.85,27,2,0,0.48
2013-4-1,79.6,67.8,60.6,69.1,63.9,59.3,98,88,69,30.08,29.94,11,1,0,0.00
2013-4-2,70.9,67.0,61.5,66.6,64.3,60.1,97,91,83,30.02,29.82,25,3,0,1.59
2013-4-3,67.5,60.9,52.6,62.6,58.0,50.6,100,90,77,30.08,29.77,14,4,0,0.11
2013-4-4,58.4,53.0,51.1,50.6,47.8,44.1,93,83,70,30.18,30.01,18,4,0,0.00
2013-4-5,74.5,59.4,47.3,54.4,48.2,43.6,88,68,43,30.25,30.09,14,2,0,0.00
2013-4-6,75.3,63.8,50.8,61.4,56.5,48.9,97,79,58,30.13,29.96,19,1,0,0.00
2013-4-7,80.5,70.7,63.8,65.8,63.1,60.5,92,78,58,30.00,29.86,15,2,0,0.00
2013-4-8,81.1,71.9,66.3,70.0,67.4,65.1,97,86,66,29.89,29.79,17,2,0,0.00
2013-4-9,78.6,73.4,69.1,73.3,70.0,67.1,94,89,81,29.82,29.72,18,2,0,0.00
2013-4-10,82.1,68.1,50.1,74.3,64.9,48.9,97,90,73,29.84,29.72,27,4,0,0.32
2013-4-11,71.0,55.3,44.0,50.9,47.1,42.5,97,77,44,29.93,29.78,17,4,0,0.91
2013-4-12,54.4,50.8,48.0,49.2,47.4,45.3,91,88,82,29.95,29.87,2,0,0,0.00
2013-4-13,76.1,66.5,52.1,62.7,58.0,50.3,97,76,48,29.98,29.81,18,3,0,0.00
2013-4-14,82.5,70.4,58.9,70.9,64.9,57.5,98,84,63,29.81,29.69,12,1,0,0.00
2013-4-15,81.5,74.4,69.5,73.2,70.2,67.2,96,87,73,29.86,29.75,13,2,0,0.00
2013-4-16,79.8,74.5,71.9,74.3,72.2,70.6,97,93,82,29.96,29.84,15,2,0,0.00
2013-4-17,76.0,74.1,73.0,73.4,72.2,71.2,97,94,91,29.95,29.78,16,2,0,0.00
2013-4-18,76.5,66.8,54.2,73.9,63.5,46.9,95,89,76,30.04,29.72,25,4,0,0.13
2013-4-19,67.6,56.9,48.7,47.1,38.1,32.4,76,52,30,30.25,30.03,22,5,0,0.00
2013-4-20,68.2,58.4,44.6,51.0,44.5,37.1,81,61,43,30.26,30.10,17,2,0,0.00
2013-4-21,74.7,65.3,57.1,60.8,55.9,50.6,88,72,60,30.17,30.06,14,2,0,0.00
2013-4-22,78.5,66.6,55.6,64.5,60.1,53.7,97,81,60,30.12,29.96,12,1,0,0.00
2013-4-23,77.9,67.0,61.0,70.4,63.9,59.8,97,90,77,29.98,29.89,7,0,0,0.01
2013-4-24,70.3,60.3,49.5,53.9,50.3,45.9,93,71,54,30.21,30.04,21,5,0,0.23
2013-4-25,72.8,64.2,56.7,62.0,53.1,47.0,83,68,42,30.31,30.18,18,4,0,0.00
2013-4-26,67.7,67.3,66.9,65.9,64.5,61.9,94,91,83,30.21,30.14,10,1,0,0.00
2013-4-28,83.6,75.7,67.7,68.9,67.1,63.6,93,76,54,29.98,29.89,12,1,0,0.38
2013-4-29,82.3,72.9,65.2,71.1,67.8,63.7,99,85,57,29.95,29.84,12,1,0,0.01
2013-4-30,84.8,74.4,68.1,70.6,67.9,65.3,94,81,56,29.86,29.74,11,1,0,0.04
2013-5-1,85.3,75.2,66.5,72.5,68.9,65.6,98,82,58,29.89,29.80,11,1,0,0.01
2013-5-2,76.5,68.1,52.3,69.6,62.0,45.1,94,81,69,30.16,29.88,27,5,0,0.00
2013-5-3,68.3,57.4,48.1,45.6,39.1,33.8,79,54,29,30.18,30.04,25,7,0,0.00
2013-5-4,81.1,64.9,45.1,54.4,44.7,35.7,81,51,29,30.10,29.85,20,3,0,0.00
2013-5-5,72.6,64.8,55.8,54.0,48.4,42.4,72,56,41,30.09,29.95,27,3,0,0.00
2013-5-6,80.9,66.7,51.0,61.3,53.2,46.8,88,64,42,30.11,29.98,17,1,0,0.00
2013-5-7,86.6,73.0,59.6,64.0,59.7,56.0,90,65,40,30.07,29.96,13,1,0,0.00
2013-5-8,84.7,72.5,62.0,68.4,64.8,59.9,95,78,52,30.07,29.98,17,1,0,0.00
2013-5-9,77.9,73.8,69.7,73.1,70.7,66.3,97,90,83,30.01,29.86,15,1,0,0.09
2013-5-10,76.8,71.4,66.1,72.6,68.6,64.2,98,91,78,30.05,29.85,26,2,0,2.75
2013-5-11,84.0,74.0,64.3,72.8,66.8,59.6,99,80,54,30.08,29.92,14,2,0,0.04
2013-5-12,81.3,73.4,65.2,66.0,61.6,58.0,87,68,51,30.18,30.07,12,2,0,0.00
2013-5-13,79.8,69.9,57.1,62.3,58.4,50.3,93,69,42,30.29,30.16,12,2,0,0.00
2013-5-14,79.6,68.6,61.2,69.0,64.0,59.8,97,86,67,30.23,30.11,12,1,0,0.01
2013-5-15,81.0,72.6,68.0,73.0,68.2,65.7,95,87,65,30.15,29.93,13,1,0,0.07
2013-5-16,83.9,77.1,71.2,73.4,71.5,68.3,92,83,69,29.96,29.82,16,2,0,0.00
2013-5-17,88.5,79.3,72.6,77.6,73.4,70.7,95,83,67,29.96,29.85,19,1,0,0.00
2013-5-18,91.1,80.8,74.7,76.0,73.3,70.7,93,79,52,29.97,29.89,16,2,0,0.00
2013-5-19,89.8,80.6,74.8,76.6,73.6,71.7,92,80,60,29.92,29.83,18,2,0,0.00
2013-5-20,89.0,81.3,76.5,77.2,74.9,72.3,92,81,66,29.91,29.79,17,2,0,0.00
2013-5-21,89.5,81.8,76.1,77.5,75.2,73.2,94,81,66,29.87,29.73,18,2,0,0.00
2013-5-22,87.3,79.6,69.9,79.4,75.3,68.4,96,87,74,29.92,29.80,14,2,0,0.04
2013-5-23,87.8,79.9,74.1,78.4,75.4,72.6,97,87,72,30.06,29.89,15,2,0,0.00
2013-5-24,87.8,80.5,75.4,78.5,75.3,72.9,96,85,69,30.13,30.00,14,1,0,0.00
2013-5-25,85.4,79.0,73.9,75.8,73.9,72.0,96,85,72,30.15,30.06,15,2,0,0.00
2013-5-26,90.1,81.4,75.9,76.3,73.3,71.0,92,78,56,30.11,30.02,14,1,0,0.00
2013-5-27,88.4,80.6,73.1,76.1,73.1,70.6,93,79,64,30.05,29.93,15,2,0,0.00
2013-5-28,89.0,80.4,75.0,76.0,73.0,71.2,89,79,60,29.97,29.88,12,2,0,0.00
2013-5-29,85.4,80.2,76.1,76.7,74.4,72.3,89,83,73,29.90,29.81,15,2,0,0.00
2013-5-30,88.7,81.7,76.7,79.2,76.1,73.5,92,84,70,29.89,29.81,16,2,0,0.00
2013-5-31,92.3,83.9,78.5,79.3,77.2,75.8,94,81,63,29.91,29.84,16,2,0,0.00
2013-6-1,93.8,84.5,78.4,79.8,77.3,75.7,93,80,62,29.90,29.83,18,2,0,0.00
2013-6-2,86.8,77.6,69.8,76.2,72.5,68.5,97,85,61,30.04,29.87,19,1,0,0.40
2013-6-3,87.2,76.1,69.5,72.6,69.8,67.2,95,82,53,29.96,29.84,10,0,0,0.00
2013-6-4,90.8,79.5,71.9,75.8,72.2,69.8,95,80,53,29.92,29.86,11,0,0,0.00
2013-6-5,93.3,85.0,72.8,79.9,76.3,71.4,97,76,62,29.89,29.75,12,1,0,0.00
2013-6-6,94.8,82.3,70.1,80.6,75.5,68.5,96,81,55,29.88,29.70,24,1,0,0.86
2013-6-7,91.1,78.3,69.0,72.4,68.3,64.0,96,74,50,29.91,29.83,9,1,0,0.00
2013-6-8,91.0,78.4,70.6,77.1,70.6,63.7,94,78,59,29.93,29.83,19,0,0,0.23
2013-6-9,89.7,76.5,72.8,79.6,73.3,70.5,96,90,70,29.95,29.84,25,1,0,0.26
2013-6-10,91.9,80.9,70.4,81.8,75.6,69.7,99,85,66,29.99,29.93,13,1,0,0.01
2013-6-11,93.4,83.4,76.3,82.3,77.5,74.3,96,83,62,30.06,29.97,12,1,0,0.17
2013-6-12,94.0,84.6,76.5,80.8,77.8,74.7,95,81,61,30.07,29.97,12,1,0,0.00
2013-6-13,96.0,85.4,76.3,82.4,78.1,74.8,97,80,57,30.06,29.91,12,1,0,0.00
2013-6-14,95.0,84.2,78.1,79.4,77.2,76.2,95,80,58,29.96,29.87,9,0,0,0.00
2013-6-15,97.3,86.5,78.7,81.2,77.0,75.4,92,75,51,29.99,29.89,11,1,0,0.00
2013-6-16,97.4,85.7,74.8,79.7,76.7,73.0,96,76,54,30.03,29.92,14,1,0,0.00
2013-6-17,96.3,85.5,76.5,80.0,76.9,73.7,94,77,50,30.01,29.89,16,2,0,0.00
2013-6-18,80.9,76.9,73.5,76.9,74.7,72.3,98,93,88,29.95,29.92,9,0,0,2.33
2013-6-19,94.0,82.8,74.5,80.5,76.4,70.9,99,83,56,30.00,29.91,14,1,0,0.19
2013-6-20,95.8,85.0,76.0,80.1,76.9,74.5,96,78,55,30.08,29.97,17,1,0,0.00
2013-6-21,94.1,85.1,76.1,79.9,76.7,74.3,96,77,57,30.10,30.01,14,1,0,0.00
2013-6-22,94.4,85.0,76.4,79.5,75.9,72.0,95,76,55,30.06,29.95,17,1,0,0.00
2013-6-23,95.5,85.6,76.1,79.7,76.1,73.8,94,75,53,30.02,29.94,15,1,0,0.00
2013-6-24,95.5,87.6,77.4,79.3,76.6,74.4,92,71,53,30.06,29.97,14,2,0,0.00
2013-6-25,95.7,86.2,78.6,80.3,77.6,75.8,91,77,58,30.04,29.94,15,2,0,0.00
2013-6-26,95.6,83.8,78.6,79.6,76.7,75.7,92,80,56,30.01,29.92,12,1,0,0.00
2013-6-27,98.1,85.8,75.8,80.8,76.4,73.6,95,75,49,30.03,29.92,12,1,0,0.00
2013-6-28,101.2,86.9,77.3,79.7,75.9,72.1,93,72,41,29.98,29.80,15,2,0,0.00
2013-6-29,102.8,89.4,78.7,80.2,76.2,70.0,91,68,37,29.85,29.69,16,2,0,0.00
2013-6-30,99.0,89.9,78.0,76.2,67.9,62.0,79,51,33,29.85,29.74,18,2,0,0.00
2013-7-1,90.1,83.4,74.0,69.4,64.9,61.5,71,54,40,29.94,29.83,13,1,0,0.00
2013-7-2,79.4,76.6,73.6,67.2,66.3,65.0,79,71,62,29.95,29.93,3,0,0,0.00
2013-7-3,92.7,83.8,72.7,73.1,69.6,66.3,89,64,46,30.02,29.90,12,1,0,0.00
2013-7-4,93.0,83.5,73.5,74.2,70.8,66.2,90,67,44,29.98,29.88,13,1,0,0.00
2013-7-5,94.4,84.4,73.9,76.6,73.6,67.6,93,72,43,29.97,29.86,14,1,0,0.00
2013-7-6,93.1,85.0,76.8,78.9,76.2,72.3,88,76,56,29.93,29.85,13,2,0,0.00
2013-7-7,90.7,84.8,78.9,78.6,75.8,74.1,87,75,63,30.01,29.96,14,1,0,0.00
2013-7-8,88.5,81.6,75.0,79.6,76.5,73.1,97,85,73,30.16,30.00,17,0,0,0.36
2013-7-9,89.7,80.8,76.4,79.0,76.2,74.9,96,87,70,30.11,30.04,9,0,0,0.00
2013-7-10,95.3,86.8,77.0,82.0,76.9,74.7,94,74,55,30.09,29.95,14,1,0,0.02
2013-7-11,98.1,86.5,76.5,80.8,76.0,69.4,94,73,43,30.01,29.89,12,1,0,0.00
2013-7-12,91.9,82.6,78.7,77.0,75.4,73.9,89,80,62,29.94,29.88,11,1,0,0.00
2013-7-13,99.5,86.1,76.7,79.1,74.8,72.2,91,71,45,29.98,29.84,21,1,0,0.00
2013-7-14,91.6,83.8,77.5,78.4,76.1,73.7,93,78,61,29.95,29.86,12,0,0,0.02
2013-7-15,89.3,79.8,73.2,79.3,75.2,70.8,94,86,68,30.05,29.90,17,2,0,0.19
2013-7-16,84.7,77.0,75.3,77.8,74.8,72.8,97,93,77,30.10,30.01,13,2,0,0.44
2013-7-17,84.5,78.0,72.6,78.7,75.5,71.4,98,92,79,30.18,30.08,13,2,0,0.55
2013-7-18,93.3,83.7,74.8,78.5,74.6,69.5,96,76,49,30.14,29.99,15,2,0,0.00
2013-7-19,86.6,78.4,75.0,76.5,73.8,72.5,93,86,67,30.04,29.94,11,1,0,0.01
2013-7-20,89.0,80.3,74.2,80.0,75.8,72.7,96,87,68,29.99,29.87,11,1,0,0.03
2013-7-21,89.0,80.6,74.0,78.0,75.9,72.8,98,86,67,30.01,29.91,16,1,0,0.50
2013-7-22,96.2,85.7,76.9,80.7,78.4,75.7,97,80,58,30.02,29.95,16,2,0,0.00
2013-7-23,96.7,85.7,77.3,78.7,76.7,74.2,96,77,50,30.04,29.91,16,2,0,0.00
2013-7-24,96.9,85.5,75.2,80.4,76.2,73.7,96,76,51,30.00,29.87,16,2,0,0.00
2013-7-25,91.8,81.9,77.1,79.5,76.5,74.5,92,84,65,30.03,29.94,11,1,0,0.00
2013-7-26,90.6,82.8,79.0,78.6,77.2,76.4,92,84,68,30.02,29.90,14,1,0,0.00
2013-7-27,95.3,82.5,73.9,81.8,77.3,71.5,98,85,58,29.97,29.84,16,1,0,0.92
2013-7-28,95.4,84.7,77.7,81.8,77.9,76.2,97,81,56,29.98,29.89,14,1,0,0.01
2013-7-29,96.1,85.5,77.1,79.7,76.6,73.2,96,77,52,30.08,29.96,13,1,0,0.00
2013-7-30,88.7,80.3,77.5,77.5,75.7,75.0,92,86,69,30.08,30.03,9,0,0,0.00
2013-7-31,98.5,84.8,74.6,81.7,76.5,72.8,96,78,51,30.10,29.95,14,1,0,0.00
2013-8-1,98.0,86.2,77.3,80.0,77.2,75.3,95,76,50,30.03,29.89,10,1,0,0.00
2013-8-2,96.0,86.7,78.8,80.9,77.6,75.8,91,75,55,29.99,29.91,13,1,0,0.00
2013-8-3,95.5,85.5,76.3,81.6,77.7,74.4,94,79,57,30.04,29.97,14,1,0,0.00
2013-8-4,95.8,86.4,78.5,81.7,78.5,76.6,95,78,59,30.08,29.97,13,1,0,0.00
2013-8-5,100.3,86.7,78.3,81.9,77.9,75.1,94,77,47,30.05,29.92,15,2,0,0.00
2013-8-6,97.2,84.4,78.2,81.1,78.1,75.9,93,82,59,29.98,29.88,15,2,0,0.00
2013-8-7,98.5,83.8,78.3,79.4,77.6,75.8,95,83,51,29.95,29.85,15,2,0,0.00
2013-8-8,97.2,85.4,76.0,81.0,77.4,74.5,96,78,55,29.94,29.84,14,1,0,0.00
2013-8-9,93.8,83.8,76.9,79.4,77.2,74.5,93,81,59,29.97,29.87,11,0,0,0.00
2013-8-10,92.7,83.6,77.7,79.6,77.9,75.2,97,84,61,30.05,29.95,12,1,0,0.45
2013-8-11,92.5,85.4,78.7,81.3,77.7,74.3,96,79,60,30.06,29.99,12,1,0,0.00
2013-8-12,97.3,86.5,77.1,82.0,77.6,74.3,93,76,56,30.08,29.97,14,1,0,0.00
2013-8-13,81.9,80.3,79.4,77.7,77.4,77.2,94,91,87,30.01,29.99,5,0,0,0.00
2013-8-14,101.1,84.7,72.8,80.2,76.4,70.2,97,79,42,29.99,29.86,15,2,0,1.14
2013-8-15,76.5,75.5,74.5,75.9,74.8,73.9,98,98,97,29.98,29.92,5,0,0,0.01
2013-8-16,91.8,83.4,76.2,77.9,75.6,72.3,95,79,57,29.99,29.87,13,1,0,0.06
2013-8-17,92.2,81.7,72.4,76.1,70.6,66.4,96,71,45,30.01,29.89,13,2,0,0.01
2013-8-18,92.5,81.9,72.0,76.2,71.7,68.2,88,72,56,30.02,29.95,12,1,0,0.00
2013-8-19,92.5,82.3,73.0,76.0,72.4,67.5,95,74,48,30.04,29.93,13,2,0,0.00
2013-8-20,90.0,81.7,75.5,78.7,74.6,71.7,94,80,59,30.03,29.95,13,1,0,0.00
2013-8-21,92.6,83.5,76.1,79.1,76.4,73.4,96,80,59,30.07,29.98,14,1,0,0.00
2013-8-22,93.7,85.3,78.2,80.1,77.4,74.5,95,78,57,30.06,29.93,13,1,0,0.00
2013-8-23,95.7,86.6,77.7,79.7,77.0,74.7,95,74,52,30.00,29.88,12,1,0,0.00
2013-8-24,92.4,85.4,78.3,79.6,76.6,73.4,92,76,57,30.02,29.93,18,2,0,0.00
2013-8-25,84.5,80.0,76.0,78.3,76.1,74.5,96,88,75,30.08,29.98,18,5,0,0.05
2013-8-26,82.1,78.0,75.9,77.2,74.8,72.9,97,90,80,30.13,30.04,13,3,0,0.31
2013-8-27,91.4,82.3,75.7,78.6,75.7,72.7,95,82,62,30.11,30.02,12,2,0,0.00
2013-8-28,96.5,84.8,74.6,77.5,73.9,71.2,95,72,45,30.09,29.98,10,1,0,0.00
2013-8-29,98.1,85.9,77.7,79.3,75.7,71.0,91,74,43,30.07,29.93,14,1,0,0.00
2013-8-30,95.4,85.3,77.7,79.7,76.6,74.1,94,76,56,30.02,29.90,12,1,0,0.00
2013-8-31,94.0,84.2,75.3,78.5,75.3,72.7,94,76,54,29.95,29.83,13,1,0,0.00
2013-9-1,95.9,84.1,73.9,79.7,75.2,71.7,94,76,51,29.93,29.83,14,1,0,0.00
2013-9-2,97.5,84.6,76.8,79.4,76.5,72.3,95,78,49,29.98,29.85,14,1,0,0.00
2013-9-3,100.5,87.4,76.8,79.3,76.4,72.9,95,73,43,29.99,29.85,11,1,0,0.00
2013-9-4,92.8,85.7,78.7,79.6,76.7,72.9,92,76,54,30.05,29.93,10,0,0,0.00
2013-9-5,94.4,84.0,77.8,80.2,77.2,75.0,96,81,59,30.08,30.00,15,1,0,0.00
2013-9-6,90.3,83.2,78.1,78.9,76.9,75.3,94,82,68,30.07,29.96,16,2,0,0.00
2013-9-7,86.5,80.2,77.0,79.7,76.2,72.5,96,88,68,30.03,29.91,17,1,0,0.21
2013-9-8,91.7,81.0,74.6,79.2,76.0,73.4,97,86,64,29.98,29.90,13,1,0,0.00
2013-9-9,90.8,81.9,75.6,78.4,75.8,73.3,94,83,59,29.99,29.92,17,2,0,0.03
2013-9-10,90.2,82.3,75.5,79.4,76.0,73.2,97,82,66,30.06,29.96,17,2,0,0.39
2013-9-11,91.6,83.3,76.9,78.8,75.5,71.6,92,78,60,30.08,29.99,15,2,0,0.00
2013-9-12,92.3,83.6,76.7,78.8,74.5,69.6,95,76,50,30.03,29.91,16,2,0,0.00
2013-9-13,94.8,83.9,74.5,77.1,73.6,70.2,93,73,46,29.93,29.80,13,1,0,0.00
2013-9-14,91.9,83.4,76.7,78.4,75.5,73.4,93,78,59,29.92,29.84,10,2,0,0.00
2013-9-15,91.3,83.5,76.8,79.0,76.8,74.3,94,81,63,29.99,29.90,15,3,0,0.00
2013-9-16,90.8,84.0,80.1,79.5,77.0,72.7,90,80,67,30.03,29.96,19,3,0,0.00
2013-9-17,92.2,84.2,78.3,79.1,77.5,76.2,94,81,63,30.05,29.93,16,2,0,0.00
2013-9-18,90.5,83.3,76.9,79.7,77.0,75.0,95,82,62,30.00,29.90,15,2,0,0.00
2013-9-19,90.9,82.5,76.9,80.5,78.0,75.0,95,87,68,29.95,29.86,20,2,0,0.29
2013-9-20,84.1,79.9,74.3,81.8,78.3,73.0,98,95,87,29.90,29.72,20,1,0,1.29
2013-9-21,76.1,73.6,70.8,71.5,70.3,69.0,98,90,82,29.83,29.76,16,4,0,0.33
2013-9-22,83.7,75.8,66.7,69.4,64.8,60.2,88,70,51,29.83,29.73,17,3,0,0.00
2013-9-23,88.4,79.1,69.4,76.6,69.4,61.8,88,72,62,29.81,29.72,13,3,0,0.00
2013-9-24,93.1,82.8,78.4,76.8,72.7,67.7,92,73,52,29.83,29.76,10,1,0,0.00
2013-9-25,97.2,82.8,71.0,77.7,69.9,63.7,94,69,34,29.87,29.76,5,0,0,0.00
2013-9-26,91.2,80.7,68.9,75.4,70.5,65.2,95,73,44,29.91,29.81,14,1,0,0.00
2013-9-27,86.9,80.8,73.3,77.8,74.4,70.5,92,81,72,29.95,29.88,16,2,0,0.00
2013-9-28,86.4,81.6,77.9,78.6,76.3,73.4,91,84,76,29.99,29.90,14,1,0,0.02
2013-9-29,85.2,80.1,76.2,79.2,76.2,74.2,96,88,78,29.98,29.90,21,2,0,0.33
2013-9-30,89.5,80.8,74.4,78.6,76.1,73.5,98,86,69,29.89,29.81,12,1,0,0.27
2013-10-1,78.9,77.5,76.6,76.3,75.2,73.9,95,93,86,29.94,29.85,7,0,0,0.54
2013-10-2,85.2,79.6,76.3,78.3,75.9,73.7,94,89,76,29.98,29.89,13,1,0,0.03
2013-10-3,88.4,80.7,73.5,79.1,75.4,72.3,98,85,69,29.95,29.87,12,1,0,0.01
2013-10-4,89.8,80.7,71.7,79.5,75.5,70.5,97,85,68,29.94,29.88,13,1,0,0.00
2013-10-5,91.3,82.4,71.7,79.9,77.0,67.2,97,85,64,29.94,29.83,14,1,0,0.13
2013-10-6,79.1,68.2,59.3,67.0,53.7,44.1,86,62,36,30.09,29.93,19,3,0,0.04
2013-10-7,80.3,68.5,56.5,55.9,50.9,42.6,78,55,39,30.13,30.02,13,1,0,0.00
2013-10-8,73.9,63.1,56.0,58.0,55.8,52.6,89,78,56,30.07,30.00,2,0,0,0.00
2013-10-9,76.7,66.5,59.1,65.4,61.3,56.4,91,84,67,30.03,29.99,6,0,0,0.00
2013-10-10,86.1,74.1,63.4,70.8,66.9,61.3,96,79,58,30.06,29.94,15,1,0,0.00
2013-10-11,88.4,78.4,67.5,76.3,72.2,65.5,96,82,62,29.97,29.88,13,1,0,0.00
2013-10-12,87.3,77.7,72.4,81.0,75.3,70.1,97,92,74,30.05,29.91,16,1,0,0.62
2013-10-13,76.9,74.0,72.5,74.3,72.5,71.5,98,95,88,30.14,30.03,11,2,0,0.08
2013-10-14,85.2,77.9,71.9,76.4,73.4,71.0,98,87,65,30.09,29.97,13,1,0,0.01
2013-10-15,86.0,78.0,71.6,77.3,73.0,70.4,98,85,64,29.99,29.88,11,0,0,0.03
2013-10-16,80.0,72.0,64.5,72.7,69.0,61.4,97,91,78,30.01,29.88,12,2,0,0.00
2013-10-17,76.9,67.6,62.5,63.7,61.0,57.8,94,80,58,30.08,29.96,13,2,0,0.01
2013-10-18,69.2,64.3,60.1,62.4,59.7,55.6,96,85,76,30.00,29.89,12,1,0,0.25
2013-10-19,71.5,64.1,56.6,64.1,56.3,47.6,98,78,51,30.11,29.93,18,2,0,0.80
2013-10-20,68.7,55.6,48.9,59.9,50.0,45.9,95,82,70,30.09,30.04,9,1,0,0.00
2013-10-21,73.0,70.4,66.3,67.9,66.2,63.9,95,87,81,30.01,29.91,9,2,0,0.16
2013-10-22,74.8,66.9,57.4,65.4,60.7,53.1,95,82,52,30.09,29.96,15,2,0,0.00
2013-10-23,82.2,65.8,51.4,60.0,54.2,49.4,95,70,36,30.16,30.07,9,0,0,0.00
2013-10-24,85.6,68.8,55.2,61.5,57.5,52.9,95,70,40,30.22,30.11,7,0,0,0.00
2013-10-25,62.0,59.9,58.2,57.8,57.0,55.8,92,90,86,30.22,30.21,0,0,0,0.00
2013-10-26,77.8,69.7,57.8,67.0,63.3,55.0,93,81,68,30.25,30.09,15,2,0,0.00
2013-10-27,78.1,67.8,61.3,69.1,64.8,60.2,98,90,73,30.11,30.00,18,1,0,0.57
2013-10-28,81.9,72.1,62.9,74.2,68.1,61.3,98,88,74,30.12,30.02,16,1,0,0.00
2013-10-29,84.1,76.0,70.2,73.6,70.9,67.9,94,85,67,30.12,30.05,16,1,0,0.00
2013-10-30,78.7,76.4,73.6,76.9,74.3,71.3,97,93,89,30.07,29.85,20,2,0,0.81
2013-10-31,77.3,70.6,61.0,76.4,69.8,60.3,99,98,94,29.90,29.75,25,2,0,4.45
2013-11-1,80.7,68.1,54.7,67.2,61.9,54.1,99,82,54,29.95,29.83,17,1,0,0.06
2013-11-2,72.2,65.1,58.7,60.4,49.6,40.7,86,59,35,30.22,29.95,19,4,0,0.00
2013-11-3,67.9,59.2,48.5,55.2,50.2,43.8,88,72,59,30.22,30.08,19,3,0,0.00
2013-11-4,72.8,66.8,56.6,67.2,62.6,52.2,94,86,80,30.09,30.00,18,3,0,0.00
2013-11-5,80.3,73.8,69.7,73.0,69.9,66.6,97,88,75,30.05,29.97,16,2,0,0.00
2013-11-6,82.5,70.9,56.0,75.3,66.3,48.9,99,86,68,30.24,29.99,19,3,0,0.01
2013-11-7,65.6,56.3,47.0,48.8,43.9,41.5,83,64,45,30.39,30.23,20,4,0,0.00
2013-11-8,54.8,53.2,52.0,46.4,45.6,44.6,80,76,69,30.36,30.32,11,2,0,0.00
2013-11-9,69.1,64.1,60.0,60.0,58.3,53.3,89,82,68,30.20,30.14,7,0,0,0.00
2013-11-10,73.3,60.6,54.5,58.4,54.0,51.3,89,79,54,30.29,30.19,7,1,0,0.00
2013-11-12,61.2,54.3,47.7,55.7,48.5,40.6,90,81,74,30.56,30.24,24,5,0,0.00
2013-11-13,49.5,45.2,40.4,40.9,34.8,29.5,78,67,60,30.58,30.41,18,3,0,0.00
2013-11-14,63.0,51.2,41.1,52.0,43.8,34.9,83,76,66,30.42,30.07,11,1,0,0.00
2013-11-15,75.8,64.8,53.3,68.3,61.1,47.9,97,88,76,30.07,29.92,11,1,0,0.00
2013-11-16,78.9,71.0,60.7,74.9,69.5,59.7,99,95,86,29.95,29.81,15,1,0,0.06
2013-11-17,84.9,77.8,72.9,76.7,73.9,71.7,98,88,72,29.94,29.81,11,1,0,0.00
2013-11-18,77.3,72.2,65.3,72.8,63.5,46.6,99,77,47,30.11,29.93,15,2,0,0.01
2013-11-19,65.2,60.3,56.6,51.0,47.6,44.3,74,63,51,30.09,30.04,15,3,0,0.00
2013-11-20,70.8,63.2,54.8,66.0,57.4,45.3,96,82,67,30.05,29.94,18,3,0,0.00
2013-11-21,79.5,72.4,67.1,74.1,70.2,66.0,97,93,83,30.09,29.98,13,2,0,0.00
2013-11-22,71.6,58.2,45.7,71.2,57.4,44.1,100,97,93,30.27,30.06,18,3,0,0.75
2013-11-23,50.1,47.5,44.8,48.6,45.4,41.1,96,93,81,30.39,30.24,25,5,0,0.01
2013-11-24,50.9,46.2,42.8,41.5,35.6,33.0,82,67,57,30.42,30.29,22,4,0,0.00
2013-11-25,45.3,42.0,38.7,42.5,39.7,35.3,98,92,68,30.30,29.95,20,3,0,1.89
2013-11-26,44.7,41.5,39.3,41.4,39.5,37.4,97,92,81,30.27,30.00,23,5,0,0.43
2013-11-27,51.3,43.1,37.0,38.7,33.2,30.4,84,69,46,30.44,30.27,12,2,0,0.00
2013-11-28,52.9,43.3,34.4,43.7,38.0,31.1,94,82,69,30.49,30.37,12,1,0,0.00
2013-11-29,60.4,47.6,38.6,42.4,38.2,31.8,91,72,46,30.52,30.40,11,1,0,0.00
2013-11-30,68.2,53.7,40.4,56.1,48.9,38.6,98,85,58,30.40,30.23,10,1,0,0.00
2013-12-1,69.3,59.8,49.6,62.6,56.8,48.6,98,90,79,30.23,29.95,8,0,0,0.01
2013-12-2,77.9,66.8,60.5,66.1,62.6,59.4,98,87,66,29.95,29.70,18,2,0,0.00
2013-12-3,71.2,64.7,60.5,67.2,63.3,59.6,98,95,83,29.74,29.67,8,1,0,0.02
2013-12-4,80.7,71.6,65.1,72.9,69.2,64.2,99,93,74,29.83,29.72,14,1,0,0.00
2013-12-5,77.5,61.2,41.3,74.3,58.9,39.7,98,92,75,30.02,29.81,17,2,0,0.00
2013-12-6,42.2,40.3,36.4,40.5,38.3,33.9,96,93,87,30.35,29.97,21,4,0,0.04
2013-12-7,38.7,37.2,35.1,35.7,34.2,32.2,91,89,86,30.39,30.27,19,3,0,0.00
2013-12-8,47.1,43.0,37.9,44.3,39.5,35.2,95,88,81,30.28,30.05,9,1,0,0.01
2013-12-9,48.3,45.6,42.2,47.5,44.5,40.3,100,96,93,30.28,30.05,16,3,0,0.05
2013-12-10,42.2,39.9,37.5,40.2,37.4,34.8,94,91,89,30.36,30.28,18,5,0,0.00
2013-12-11,51.7,47.6,39.9,44.8,41.1,36.3,88,78,70,30.50,30.34,9,1,0,0.00
2013-12-12,54.5,46.5,38.6,41.8,38.4,35.4,88,74,56,30.55,30.36,12,2,0,0.00
2013-12-13,57.5,51.9,43.9,56.9,48.5,38.6,98,88,77,30.36,29.87,12,1,0,0.07
2013-12-14,60.7,52.5,42.4,57.8,48.5,35.7,99,87,73,30.27,29.86,22,4,0,0.00
2013-12-15,56.4,44.5,36.2,37.5,35.1,32.1,88,71,46,30.39,30.27,14,2,0,0.00
2013-12-16,37.4,34.5,32.6,34.3,32.2,30.4,93,91,88,30.34,30.31,0,0,0,0.00
2013-12-17,71.9,59.6,47.1,52.9,48.7,45.3,94,70,39,30.30,30.23,7,0,0,0.00
2013-12-18,66.5,54.4,40.3,56.6,50.3,38.8,98,87,65,30.33,30.12,14,1,0,0.01
2013-12-19,74.8,63.3,57.1,67.2,59.4,53.4,96,88,74,30.12,29.91,18,1,0,0.00
2013-12-20,75.9,71.1,65.4,72.4,69.6,64.5,98,95,88,29.94,29.76,17,2,0,0.03
2013-12-21,75.7,66.3,54.6,73.2,65.1,53.8,99,96,80,29.83,29.57,23,2,0,0.62
2013-12-22,60.8,54.2,39.7,59.4,49.9,33.4,98,86,69,30.33,29.82,21,3,0,0.03
2013-12-23,52.6,42.8,34.7,38.3,34.6,31.3,89,74,53,30.53,30.32,16,2,0,0.00
2013-12-24,54.9,44.1,35.7,39.8,35.8,32.3,89,74,45,30.57,30.32,12,1,0,0.00
2013-12-25,59.9,49.8,38.8,50.7,44.9,36.7,96,84,70,30.36,30.28,14,2,0,0.00
2013-12-26,62.9,54.7,49.7,49.1,44.9,37.8,89,71,50,30.40,30.29,11,1,0,0.00
2013-12-27,56.7,52.5,49.7,45.3,42.5,39.2,80,69,58,30.42,30.31,11,2,0,0.00
2013-12-28,58.5,50.3,42.3,43.3,39.8,36.5,89,68,46,30.31,30.04,9,1,0,0.00
2013-12-29,67.1,52.0,38.1,48.9,42.3,36.3,96,73,38,30.17,30.00,8,0,0,0.00
2013-12-30,55.2,45.0,41.7,49.7,38.1,35.3,83,77,73,30.40,30.13,11,2,0,0.00
2013-12-31,50.7,45.3,40.6,41.9,38.1,34.0,82,76,67,30.42,30.28,11,1,0,0.00
2014-1-1,64.5,55.4,47.0,58.3,51.7,41.8,93,88,79,30.29,30.02,10,0,0,0.00
2014-1-2,59.2,50.5,40.6,57.8,42.9,31.4,95,76,51,30.31,30.05,24,5,0,0.00